Regional Weather Roundup
Issued by NWS

Home | Current Version | Previous Version | Text Only | Print | Product List | Glossary On
Versions: 1 2 3 4 5 6 7 8 9 10 11 12 13 14 15 16 17 18 19 20 21 22 23 24 25 26 27 28
000
ASUS43 KDMX 311407
RWRIA

WEATHER ROUNDUP FOR IOWA
NATIONAL WEATHER SERVICE DES MOINES IA
900 AM CDT FRI OCT 31 2014

NOTE: "FAIR" INDICATES FEW OR NO CLOUDS BELOW 12,000 FEET WITH NO
SIGNIFICANT WEATHER AND/OR OBSTRUCTIONS TO VISIBILITY.

* - THESE STATIONS ARE NOT NWS STATIONS...THUS NOT UNDER NWS
QUALITY CONTROL.  THEY ALSO DO NOT REPORT WEATHER SUCH
AS PRECIPITATION OR FOG.

IAZ001>003-012>014-020>022-031>034-043>046-311500-
   NORTHWEST IOWA

CITY           SKY/WX    TMP DP  RH WIND       PRES   REMARKS
CARROLL *      SUNNY     27  19  74 N13       30.52R WCI  16
CHEROKEE *     SUNNY     23  21  93 N6        30.56R WCI  16
DENISON *      SUNNY     27  21  80 N8        30.53R WCI  18
LE MARS *      CLEAR     25  21  86 N7        30.58R WCI  17
ORANGE CITY *  CLEAR     25  19  80 N8        30.55R WCI  16
SHELDON *      CLEAR     21  19  93 N8        30.55R WCI  12
SIOUX CITY     CLEAR     26  20  77 NW8       30.59R WCI  18
SPENCER        SUNNY     25  19  78 N12       30.55R WCI  14
STORM LAKE *   SUNNY     25  19  80 N10       30.54R WCI  15
$$

IAZ055>058-069>071-079>083-090>094-311500-
   SOUTHWEST IOWA

CITY           SKY/WX    TMP DP  RH WIND       PRES   REMARKS
ATLANTIC *     SUNNY     28  21  74 N14       30.52R WCI  17
AUDUBON *      SUNNY     27  18  69 N13       30.52R WCI  16
COUNCIL BLFS * SUNNY     28  23  80 N10       30.53R WCI  19
CRESTON *      SUNNY     28  18  64 N14G21    30.48R WCI  17
HARLAN  *      SUNNY     27  23  86 N8        30.57R WCI  18
LAMONI         SUNNY     30  18  60 N15G25    30.46R WCI  19
RED OAK *      SUNNY     28  21  74 N9        30.53R WCI  20
SHENANDOAH *   SUNNY     30  23  74 N10       30.55R WCI  21
$$

IAZ047>049-059>061-072>074-084-311500-
   CENTRAL IOWA

CITY           SKY/WX    TMP DP  RH WIND       PRES   REMARKS
AMES           SUNNY     28  18  66 N14       30.49R WCI  17
ANKENY *       SUNNY     30  18  59 N15G22    30.48R WCI  19
CHARITON *     SUNNY     30  18  59 N20G26    30.44R WCI  18
DES MOINES     SUNNY     31  17  56 N16G24    30.49R WCI  20
GRINNELL*      SUNNY     30  19  64 N14G22    30.43R WCI  20
KNOXVILLE *    SUNNY     30  18  59 N18G24    30.44R WCI  18
MARSHALLTOWN   SUNNY     29  19  66 N17       30.44R WCI  17
PELLA *        SUNNY     30  19  64 N16G22    30.46R WCI  19
PERRY *          N/A     30  21  69 N12       30.51R WCI  21
$$

IAZ004>006-015-016-023>025-035-036-311500-
   NORTH CENTRAL IOWA

CITY           SKY/WX    TMP DP  RH WIND       PRES   REMARKS
ALGONA *       SUNNY     27  19  74 N14       30.53R WCI  15
CLARION *      SUNNY     27  19  74 N13       30.50R WCI  16
ESTHERVILLE    SUNNY     24  18  77 N14       30.53R WCI  12
FORT DODGE *   SUNNY     27  18  69 N7        30.53R WCI  19
MASON CITY     SUNNY     27  19  72 N14       30.49R WCI  16
FOREST CITY *  SUNNY     28  21  74 NW13G18   30.49R WCI  18
IOWA FALLS *     N/A     28  19  69 N17       30.47R WCI  16
$$

IAZ007>011-017>019-026>030-037>042-050>054-066-311500-
   NORTHEAST IOWA

CITY           SKY/WX    TMP DP  RH WIND       PRES   REMARKS
CEDAR RAPIDS   SUNNY     30  20  66 N20G29    30.37R WCI  17
CHARLES CITY * SUNNY     28  18  64 N14G21    30.45R WCI  17
CLINTON *      SUNNY     34  21  60 N21G26    30.32R WCI  22
DECORAH *      MOSUNNY   28  19  69 N13G20    30.40R WCI  18
DUBUQUE        PTSUNNY   32  22  66 N20       30.31R WCI  20
MONTICELLO *   SUNNY     32  21  64 N18       30.35R WCI  20
OELWEIN *      SUNNY     28  19  69 N18G26    30.40R WCI  16
WATERLOO       SUNNY     29  18  63 N20G28    30.42R WCI  16
$$

IAZ064-065-067-068-078-311500-
   EAST CENTRAL IOWA

CITY           SKY/WX    TMP DP  RH WIND       PRES   REMARKS
DAVENPORT      SUNNY     33  21  61 N21G28    30.30R WCI  21
IOWA CITY      SUNNY     33  21  61 N14G26    30.38R WCI  23
MT. PLEASANT * SUNNY     32  21  64 N20G28    30.36R WCI  20
MUSCATINE *    SUNNY     34  21  60 N21G28    30.35R WCI  22
QUAD CITIES    SUNNY     34  21  59 N14       30.30R WCI  25
$$

IAZ062-063-075>077-085>089-095>099-311500-
   SOUTHEAST IOWA

CITY           SKY/WX    TMP DP  RH WIND       PRES   REMARKS
BURLINGTON     SUNNY     33  21  61 N22G31    30.33R WCI  21
FAIRFIELD *    SUNNY     32  19  59 N17G25    30.38R WCI  21
FORT MADISON * SUNNY     36  23  60 N14G22    30.35R WCI  27
KEOKUK *       SUNNY     34  21  60 N16G28    30.34R WCI  23
OSKALOOSA *      N/A     30  19  64 N20G25    30.42R WCI  18
CENTERVILLE *  SUNNY     32  18  55 N13G22    30.43R WCI  22
OTTUMWA        SUNNY     31  18  58 N18       30.41R WCI  19
WASHINGTON *   SUNNY     32  21  64 N16G26    30.37R WCI  21
$$

ABBREVIATIONS USED IN REMARKS
   TC - TEMPERATURES IN CELSIUS
  WCI - WIND CHILL INDEX
   HX - HEAT INDEX
  VSB - VISIBILITY
$$




USA.gov is the U.S. government's official web portal to all federal, state and local government web resources and services.